Weather reports worldwide

Advertisment
Lerida, Spain (8171): temperature & dewpoint: 19.09.2020 02:00:00 - 25.09.2020 02:00:00 (CEST)Lerida, Spain (8171): wind speed: 19.09.2020 02:00:00 - 25.09.2020 02:00:00 (CEST)Lerida, Spain (8171): wind direction: 19.09.2020 02:00:00 - 25.09.2020 02:00:00 (CEST)Lerida, Spain (8171): reduced air pressure: 19.09.2020 02:00:00 - 25.09.2020 02:00:00 (CEST)Lerida, Spain (8171): visibility: 19.09.2020 02:00:00 - 25.09.2020 02:00:00 (CEST)Lerida, Spain (8171): precipitation: 19.09.2020 02:00:00 - 25.09.2020 02:00:00 (CEST)
Date & Time tt [°C] td [°C] ff [km/h] ff [kn] dd ppp [hPa] vv [km] rr [mm]
25.09.2020 02:00:00 16,6 8,3 11 6 WSW 1011,1 20 -
25.09.2020 01:00:00 18,6 8,0 16 9 W 1010,9 20 0,0
25.09.2020 00:00:00 17,2 10,3 8 4 WSW 1011,3 19 0,0
24.09.2020 23:00:00 17,7 14,6 8 4 WSW 1011,1 19 -
24.09.2020 22:00:00 19,1 14,8 8 4 W 1010,9 19 0,0
24.09.2020 21:00:00 20,5 15,1 5 3 WSW 1010,4 17 0,0
24.09.2020 20:00:00 21,8 15,2 5 3 SW 1010,1 20 -
24.09.2020 19:00:00 23,4 15,4 13 7 SSW 1009,6 20 0,0
24.09.2020 18:00:00 23,6 15,6 13 7 SSW 1009,6 20 0,0
24.09.2020 17:00:00 24,6 15,8 13 7 SW 1009,9 20 -
24.09.2020 16:00:00 22,8 16,6 16 9 SW 1010,7 19 0,0
24.09.2020 15:00:00 23,8 13,9 16 9 SW 1011,2 20 0,0
24.09.2020 14:00:00 24,9 13,4 11 6 W 1011,3 19 -
24.09.2020 13:00:00 24,0 13,8 11 6 WSW 1011,6 20 0,0
24.09.2020 12:00:00 23,4 15,2 11 6 W 1012,3 20 0,0
24.09.2020 11:00:00 21,5 15,3 9 5 WSW 1012,7 19 -
24.09.2020 10:00:00 18,4 14,1 2 1 ESE 1012,9 14 0,0
24.09.2020 09:00:00 16,5 13,6 4 2 N 1012,8 12 0,0
24.09.2020 08:00:00 15,2 13,0 4 2 NNE 1012,6 12 -
24.09.2020 07:00:00 15,5 13,2 4 2 NNE 1012,7 13 0,0
24.09.2020 06:00:00 16,3 13,6 4 2 NNE 1012,6 16 0,0
24.09.2020 05:00:00 16,7 13,6 4 2 ENE 1012,5 15 -
24.09.2020 04:00:00 17,4 13,9 4 2 N 1012,4 19 0,0
24.09.2020 03:00:00 17,3 14,0 2 1 NE 1012,6 17 0,0
24.09.2020 02:00:00 18,0 14,1 2 1 N 1012,6 17 -
24.09.2020 01:00:00 19,3 14,3 4 2 SSW 1012,4 18 0,0
24.09.2020 00:00:00 19,8 14,6 8 4 WSW 1012,4 17 0,0
23.09.2020 23:00:00 20,6 14,3 5 3 WSW 1012,1 19 -
23.09.2020 22:00:00 22,1 14,2 5 3 W 1011,5 19 0,0
23.09.2020 21:00:00 23,0 13,7 8 4 WSW 1010,9 19 0,0
23.09.2020 20:00:00 24,4 13,6 8 4 WSW 1010,0 20 -
23.09.2020 19:00:00 26,1 13,2 5 3 WSW 1009,6 19 0,0
23.09.2020 18:00:00 27,6 12,4 15 8 WSW 1009,5 19 0,0
23.09.2020 17:00:00 27,1 13,1 13 7 WSW 1009,8 20 -
23.09.2020 16:00:00 26,8 12,4 5 3 WNW 1010,3 20 0,0
23.09.2020 15:00:00 26,9 12,5 9 5 W 1010,8 16 0,0
23.09.2020 14:00:00 26,1 12,9 9 5 W 1011,4 30 -
23.09.2020 13:00:00 25,0 14,2 5 3 SSW 1012,1 19 0,0
23.09.2020 12:00:00 22,8 14,4 8 4 SSW 1012,9 19 0,0
23.09.2020 11:00:00 21,3 14,0 4 2 WSW 1013,0 18 -
23.09.2020 10:00:00 18,7 13,5 5 3 ENE 1012,8 17 0,0
23.09.2020 09:00:00 15,9 13,0 4 2 ENE 1013,1 15 0,0
23.09.2020 08:00:00 14,4 12,4 4 2 NE 1012,9 11 -
23.09.2020 07:00:00 15,2 13,0 5 3 NE 1012,7 13 0,0
23.09.2020 06:00:00 15,7 13,0 4 2 N 1012,7 15 0,0
23.09.2020 05:00:00 15,7 13,0 5 3 N 1012,6 15 -
23.09.2020 04:00:00 16,6 13,3 5 3 NE 1012,6 16 0,0
23.09.2020 03:00:00 17,3 13,4 2 1 N 1012,9 18 0,0
23.09.2020 02:00:00 17,6 13,3 8 4 NE 1013,0 18 -
23.09.2020 01:00:00 17,9 13,6 8 4 NNE 1013,1 17 0,0
23.09.2020 00:00:00 18,9 13,7 5 3 NE 1013,2 20 0,0
22.09.2020 23:00:00 19,8 13,5 2 1 SW 1012,9 20 -
22.09.2020 22:00:00 21,6 13,5 5 3 SW 1012,5 20 0,0
22.09.2020 21:00:00 22,2 13,0 8 4 S 1011,8 19 0,0
22.09.2020 20:00:00 24,7 12,6 5 3 NW 1010,8 20 -
22.09.2020 19:00:00 26,9 12,2 2 1 SW 1010,7 20 0,0
22.09.2020 18:00:00 27,2 11,6 5 3 SW 1011,1 20 0,0
22.09.2020 17:00:00 27,2 12,0 9 5 W 1011,6 20 -
22.09.2020 16:00:00 26,7 12,4 9 5 SW 1012,5 20 0,0
22.09.2020 15:00:00 26,0 11,7 9 5 W 1013,3 20 0,0
22.09.2020 14:00:00 24,7 12,6 11 6 W 1014,3 30 -
22.09.2020 13:00:00 23,2 12,8 11 6 SW 1015,1 19 0,0
22.09.2020 12:00:00 21,8 14,2 5 3 WSW 1015,8 20 0,0
22.09.2020 11:00:00 19,7 13,6 9 5 WSW 1016,0 20 -
22.09.2020 10:00:00 18,1 13,6 4 2 W 1016,0 19 0,0
22.09.2020 09:00:00 15,8 13,6 5 3 WSW 1016,0 16 0,0
22.09.2020 08:00:00 14,4 13,1 5 3 WNW 1015,9 8 -
22.09.2020 07:00:00 14,4 13,3 0 0 N 1015,7 9 0,0
22.09.2020 06:00:00 14,9 13,1 4 2 SSW 1015,7 17 0,0
22.09.2020 05:00:00 15,6 13,4 2 1 S 1015,9 19 -
22.09.2020 04:00:00 16,6 14,1 2 1 NNW 1016,0 20 0,0
22.09.2020 03:00:00 17,2 14,3 5 3 NE 1016,1 20 0,0
22.09.2020 02:00:00 17,5 14,2 5 3 NNE 1016,0 20 -
22.09.2020 01:00:00 18,1 14,2 5 3 NE 1016,2 20 0,0
22.09.2020 00:00:00 18,9 14,2 5 3 NNE 1016,1 20 0,0
21.09.2020 23:00:00 19,9 14,3 8 4 NNE 1016,0 20 -
21.09.2020 22:00:00 21,4 13,3 9 5 ENE 1015,6 20 0,0
21.09.2020 21:00:00 23,1 13,3 5 3 W 1014,9 20 0,0
21.09.2020 20:00:00 24,9 13,4 4 2 SW 1014,5 20 -
21.09.2020 19:00:00 26,2 12,6 9 5 W 1014,3 20 0,0
21.09.2020 18:00:00 26,6 12,6 11 6 WSW 1014,0 20 0,0
21.09.2020 17:00:00 27,6 13,2 9 5 W 1014,2 20 -
21.09.2020 16:00:00 26,8 13,2 11 6 WSW 1014,8 20 0,0
21.09.2020 15:00:00 26,7 13,8 8 4 W 1015,1 20 0,0
21.09.2020 14:00:00 25,5 14,9 9 5 W 1016,1 30 -
21.09.2020 13:00:00 23,9 15,7 11 6 SW 1016,6 20 0,0
21.09.2020 12:00:00 22,3 15,2 9 5 SW 1017,1 20 0,0
21.09.2020 11:00:00 21,0 16,2 5 3 SW 1017,0 20 -
21.09.2020 10:00:00 19,0 15,7 8 4 SSW 1016,9 19 0,0
21.09.2020 09:00:00 17,3 15,3 2 1 W 1017,0 17 0,0
21.09.2020 08:00:00 16,5 14,7 2 1 ENE 1016,8 19 -
21.09.2020 07:00:00 16,5 14,5 4 2 WSW 1016,3 20 0,0
21.09.2020 06:00:00 16,9 14,4 2 1 WSW 1016,1 20 0,0
21.09.2020 05:00:00 17,8 14,9 4 2 S 1016,1 20 -
21.09.2020 04:00:00 18,3 15,0 5 3 SW 1016,1 20 0,0
21.09.2020 03:00:00 18,9 14,8 4 2 SW 1016,5 20 0,0
21.09.2020 02:00:00 19,5 14,7 4 2 WSW 1016,3 20 -
21.09.2020 01:00:00 20,3 14,4 8 4 WSW 1016,2 20 0,0
21.09.2020 00:00:00 21,2 14,1 4 2 W 1015,9 20 0,0
20.09.2020 23:00:00 21,5 14,4 5 3 W 1015,8 20 -
20.09.2020 22:00:00 22,4 14,3 5 3 NW 1015,3 20 0,0
20.09.2020 21:00:00 23,8 13,6 8 4 WNW 1014,6 20 0,0
20.09.2020 20:00:00 25,2 13,4 5 3 WNW 1013,9 20 -
20.09.2020 19:00:00 27,5 13,1 8 4 W 1013,4 20 0,0
20.09.2020 18:00:00 28,3 13,0 8 4 W 1013,4 20 0,0
20.09.2020 17:00:00 27,9 13,0 5 3 WSW 1013,6 20 -
20.09.2020 16:00:00 27,4 13,0 9 5 WSW 1014,0 20 0,0
20.09.2020 15:00:00 26,7 13,4 9 5 SW 1014,6 19 0,0
20.09.2020 14:00:00 25,9 13,7 11 6 W 1015,2 20 -
20.09.2020 13:00:00 25,3 12,5 16 9 W 1015,6 20 0,0
20.09.2020 12:00:00 23,2 14,5 15 8 W 1016,4 20 0,0
20.09.2020 11:00:00 21,1 14,5 9 5 WSW 1016,6 20 -
20.09.2020 10:00:00 19,4 14,0 8 4 WSW 1016,4 20 0,0
20.09.2020 09:00:00 16,6 14,2 2 1 SW 1016,5 20 0,0
20.09.2020 08:00:00 15,2 13,4 8 4 WSW 1016,2 20 -
20.09.2020 07:00:00 15,5 13,3 5 3 WSW 1016,0 19 0,0
20.09.2020 06:00:00 16,0 13,7 5 3 SW 1015,9 20 0,0
20.09.2020 05:00:00 16,9 13,6 4 2 S 1015,7 20 -
20.09.2020 04:00:00 17,1 14,0 5 3 W 1015,8 20 0,0
20.09.2020 03:00:00 17,9 14,2 9 5 W 1015,8 7 0,0
20.09.2020 02:00:00 18,2 14,1 5 3 SW 1015,6 20 -
20.09.2020 01:00:00 19,2 14,2 5 3 SSW 1015,3 20 0,0
20.09.2020 00:00:00 21,0 14,2 9 5 W 1015,0 20 0,0
19.09.2020 23:00:00 22,6 13,6 11 6 W 1014,8 20 -
19.09.2020 22:00:00 23,2 13,4 9 5 WNW 1014,2 20 0,0
19.09.2020 21:00:00 23,1 13,3 9 5 WNW 1013,5 20 0,0
19.09.2020 20:00:00 24,8 12,7 9 5 WNW 1012,7 20 -
19.09.2020 19:00:00 26,4 13,5 13 7 WNW 1012,2 20 0,0
19.09.2020 18:00:00 27,9 12,7 11 6 NW 1011,6 20 0,0
19.09.2020 17:00:00 28,3 13,0 9 5 W 1011,7 20 -
19.09.2020 16:00:00 28,2 13,7 11 6 WSW 1012,2 20 0,0
19.09.2020 15:00:00 26,9 14,6 9 5 WSW 1012,8 20 0,0
19.09.2020 14:00:00 26,4 15,1 11 6 SW 1013,8 17 -
19.09.2020 13:00:00 25,9 17,5 9 5 SSW 1014,0 20 0,0
19.09.2020 12:00:00 24,6 17,8 5 3 E 1014,6 19 0,0
19.09.2020 11:00:00 22,7 18,9 8 4 E 1014,9 19 -
19.09.2020 10:00:00 21,4 18,6 9 5 NE 1014,8 17 0,0
19.09.2020 09:00:00 18,9 17,7 5 3 N 1014,7 6 0,0
19.09.2020 08:00:00 18,4 17,6 5 3 N 1014,4 - -
19.09.2020 07:00:00 18,4 17,6 5 3 NE 1014,3 4,8 0,6
19.09.2020 06:00:00 18,8 17,5 4 2 ENE 1015,3 4,9 0,6
19.09.2020 05:00:00 18,8 16,9 5 3 NE 1014,5 9 -
19.09.2020 04:00:00 19,0 17,0 9 5 NNE 1014,9 10 0,0
19.09.2020 03:00:00 18,6 16,9 9 5 NNE 1015,5 7 0,0
19.09.2020 02:00:00 19,1 16,9 5 3 NNE 1015,5 9 -

tt = temperature
td = dewpoint
ff = wind speed
dd = wind direction
ppp = reduced air pressure
vv = visibility
rr = precipitation

Next stations